When you browse on this site, cookies collect data to enhance your experience and personalize the content and advertising you see.
Visit our Privacy Policy to learn more. By continuing to use the site, you agree to this use of cookies and data.
  • In Romania
  • List of Countries
  • For 7 days
  • Water Temperature
  • Satellite Maps
  • Weather Map
  • Weather Widgets
  • user-avatar
    Login

    Hourly Weather Dallas

    Today, 12 December, Wednesday

    Time Temperature Precipitation Wind Pressure Humidity
    00:00 +9°C° 0 mm 5 mps 753 mmHg 77%
    01:00 +9°C° 0 mm 5 mps 752 mmHg 79%
    02:00 +9°C° 0 mm 5 mps 752 mmHg 82%
    03:00 +10°C° 0 mm 4 mps 752 mmHg 84%
    04:00 +10°C° 0 mm 4 mps 751 mmHg 85%
    05:00 +10°C° 0 mm 4 mps 751 mmHg 86%
    06:00 +10°C° 0 mm 4 mps 751 mmHg 87%
    07:00 +9°C° 0 mm 5 mps 751 mmHg 87%
    08:00 +10°C° 0 mm 5 mps 750 mmHg 86%
    09:00 +10°C° 0 mm 5 mps 750 mmHg 86%
    10:00 +13°C° 0 mm 5 mps 750 mmHg 82%
    11:00 +14°C° 0 mm 6 mps 749 mmHg 79%
    12:00 +15°C° 0 mm 7 mps 749 mmHg 76%
    13:00 +16°C° 0 mm 6 mps 748 mmHg 76%
    14:00 +16°C° 0 mm 6 mps 747 mmHg 75%
    15:00 +17°C° 0 mm 6 mps 746 mmHg 75%
    16:00 +16°C° 0 mm 6 mps 746 mmHg 78%
    17:00 +16°C° 0 mm 6 mps 746 mmHg 81%
    18:00 +16°C° 0 mm 6 mps 746 mmHg 84%
    19:00 +16°C° 0 mm 6 mps 746 mmHg 85%
    20:00 +16°C° 0 mm 6 mps 746 mmHg 86%
    21:00 +16°C° 0 mm 7 mps 746 mmHg 87%
    22:00 +16°C° 0.1 mm 7 mps 745 mmHg 87%
    23:00 +16°C° 0.1 mm 7 mps 745 mmHg 86%

    Tomorrow, 13 December, Thursday

    Time Temperature Precipitation Wind Pressure Humidity
    00:00 +16°C° 0.1 mm 7 mps 744 mmHg 86%
    01:00 +16°C° 0.2 mm 7 mps 744 mmHg 88%
    02:00 +15°C° 0.2 mm 6 mps 743 mmHg 90%
    03:00 +15°C° 0.2 mm 6 mps 742 mmHg 92%
    04:00 +15°C° 0 mm 6 mps 742 mmHg 91%
    05:00 +15°C° 0 mm 6 mps 741 mmHg 91%
    06:00 +15°C° 0 mm 5 mps 741 mmHg 90%
    07:00 +15°C° 0 mm 5 mps 741 mmHg 84%
    08:00 +15°C° 0 mm 5 mps 741 mmHg 78%
    09:00 +14°C° 0 mm 5 mps 741 mmHg 73%
    10:00 +15°C° 0 mm 5 mps 741 mmHg 65%
    11:00 +15°C° 0 mm 5 mps 741 mmHg 57%
    12:00 +16°C° 0 mm 5 mps 741 mmHg 50%
    13:00 +15°C° 0.1 mm 6 mps 741 mmHg 54%
    14:00 +14°C° 0.1 mm 7 mps 741 mmHg 58%
    15:00 +12°C° 0.1 mm 8 mps 741 mmHg 62%
    16:00 +10°C° 0.7 mm 9 mps 741 mmHg 68%
    17:00 +8°C° 0.7 mm 9 mps 741 mmHg 73%
    18:00 +6°C° 0.7 mm 10 mps 742 mmHg 78%
    19:00 +6°C° 1.7 mm 11 mps 742 mmHg 78%
    20:00 +6°C° 1.7 mm 11 mps 742 mmHg 78%
    21:00 +4°C° 1.7 mm 11 mps 742 mmHg 78%
    22:00 +4°C° 1.6 mm 11 mps 743 mmHg 78%
    23:00 +4°C° 1.6 mm 11 mps 743 mmHg 77%

    Day after tomorrow, 14 December, Friday

    Time Temperature Precipitation Wind Pressure Humidity
    00:00 +4°C° 1.6 mm 11 mps 743 mmHg 77%
    01:00 +3°C° 0.9 mm 11 mps 743 mmHg 77%
    02:00 +3°C° 0.9 mm 12 mps 744 mmHg 77%
    03:00 +3°C° 0.9 mm 12 mps 744 mmHg 78%
    04:00 +2°C° 0.2 mm 12 mps 745 mmHg 77%
    05:00 +2°C° 0.2 mm 12 mps 745 mmHg 77%
    06:00 0°C° 0.2 mm 13 mps 746 mmHg 76%
    07:00 0°C° 0.1 mm 12 mps 747 mmHg 75%
    08:00 0°C° 0.1 mm 12 mps 748 mmHg 74%
    09:00 0°C° 0.1 mm 12 mps 748 mmHg 72%
    10:00 0°C° 0.3 mm 12 mps 749 mmHg 72%
    11:00 +1°C° 0.3 mm 11 mps 749 mmHg 72%
    12:00 +1°C° 0.3 mm 11 mps 750 mmHg 71%
    13:00 +3°C° 0.3 mm 11 mps 749 mmHg 67%
    14:00 +4°C° 0.3 mm 11 mps 749 mmHg 62%
    15:00 +6°C° 0.3 mm 11 mps 749 mmHg 57%
    16:00 +5°C° 0 mm 10 mps 750 mmHg 57%
    17:00 +5°C° 0 mm 9 mps 751 mmHg 56%
    18:00 +5°C° 0 mm 7 mps 751 mmHg 55%
    19:00 +5°C° 0 mm 7 mps 752 mmHg 54%
    20:00 +4°C° 0 mm 7 mps 752 mmHg 53%
    21:00 +4°C° 0 mm 7 mps 752 mmHg 52%
    22:00 +4°C° 0 mm 7 mps 753 mmHg 53%
    23:00 +3°C° 0 mm 7 mps 753 mmHg 53%

    15 December, Saturday

    Time Temperature Precipitation Wind Pressure Humidity
    00:00 +3°C° 0 mm 7 mps 753 mmHg 54%
    01:00 +3°C° 0 mm 6 mps 753 mmHg 56%
    02:00 +2°C° 0 mm 6 mps 753 mmHg 57%
    03:00 +2°C° 0 mm 5 mps 753 mmHg 59%
    04:00 +2°C° 0 mm 5 mps 754 mmHg 60%
    05:00 +1°C° 0 mm 5 mps 754 mmHg 61%
    06:00 +1°C° 0 mm 4 mps 754 mmHg 63%
    07:00 +3°C° 0 mm 4 mps 754 mmHg 61%
    08:00 +3°C° 0 mm 4 mps 755 mmHg 59%
    09:00 +4°C° 0 mm 4 mps 755 mmHg 58%
    10:00 +6°C° 0 mm 4 mps 755 mmHg 52%
    11:00 +9°C° 0 mm 3 mps 755 mmHg 47%
    12:00 +10°C° 0 mm 3 mps 755 mmHg 41%
    13:00 +11°C° 0 mm 3 mps 755 mmHg 40%
    14:00 +12°C° 0 mm 3 mps 754 mmHg 38%
    15:00 +14°C° 0 mm 2 mps 754 mmHg 36%
    16:00 +13°C° 0 mm 2 mps 754 mmHg 40%
    17:00 +12°C° 0 mm 1 mps 754 mmHg 44%
    18:00 +10°C° 0 mm 1 mps 754 mmHg 48%
    19:00 +10°C° 0 mm 1 mps 755 mmHg 49%
    20:00 +10°C° 0 mm 1 mps 755 mmHg 50%
    21:00 +9°C° 0 mm 1 mps 755 mmHg 51%
    22:00 +9°C° 0 mm 1 mps 755 mmHg 52%
    23:00 +9°C° 0 mm 1 mps 755 mmHg 52%

    16 December, Sunday

    Time Temperature Precipitation Wind Pressure Humidity
    00:00 +9°C° 0 mm 1 mps 756 mmHg 53%
    01:00 +9°C° 0 mm 1 mps 756 mmHg 53%
    02:00 +8°C° 0 mm 1 mps 756 mmHg 54%
    03:00 +7°C° 0 mm 2 mps 756 mmHg 55%
    04:00 +8°C° 0 mm 1 mps 756 mmHg 56%
    05:00 +8°C° 0 mm 1 mps 756 mmHg 57%
    06:00 +8°C° 0 mm 1 mps 756 mmHg 58%
    07:00 +8°C° 0 mm 1 mps 756 mmHg 58%
    08:00 +9°C° 0 mm 1 mps 757 mmHg 57%
    09:00 +9°C° 0 mm 2 mps 757 mmHg 57%
    10:00 +10°C° 0 mm 2 mps 757 mmHg 53%
    11:00 +13°C° 0 mm 2 mps 757 mmHg 49%
    12:00 +14°C° 0 mm 2 mps 757 mmHg 46%
    13:00 +15°C° 0 mm 2 mps 756 mmHg 45%
    14:00 +16°C° 0 mm 2 mps 756 mmHg 44%
    15:00 +16°C° 0 mm 1 mps 756 mmHg 43%
    16:00 +15°C° 0 mm 1 mps 756 mmHg 47%
    17:00 +14°C° 0 mm 1 mps 756 mmHg 51%
    18:00 +13°C° 0 mm 1 mps 756 mmHg 55%
    19:00 +12°C° 0 mm 1 mps 756 mmHg 58%
    20:00 +12°C° 0 mm 1 mps 756 mmHg 60%
    21:00 +11°C° 0 mm 1 mps 757 mmHg 62%
    22:00 +11°C° 0 mm 1 mps 757 mmHg 64%
    23:00 +11°C° 0 mm 1 mps 757 mmHg 66%

    17 December, Monday

    Time Temperature Precipitation Wind Pressure Humidity
    00:00 +10°C° 0 mm 1 mps 756 mmHg 67%
    01:00 +10°C° 0 mm 1 mps 756 mmHg 68%
    02:00 +10°C° 0 mm 1 mps 756 mmHg 70%
    03:00 +9°C° 0 mm 1 mps 756 mmHg 71%
    04:00 +9°C° 0 mm 1 mps 756 mmHg 71%
    05:00 +9°C° 0 mm 1 mps 756 mmHg 72%
    06:00 +9°C° 0 mm 1 mps 756 mmHg 72%
    07:00 +9°C° 0 mm 1 mps 756 mmHg 72%
    08:00 +10°C° 0 mm 1 mps 757 mmHg 71%
    09:00 +9°C° 0 mm 2 mps 757 mmHg 70%
    10:00 +10°C° 0 mm 2 mps 757 mmHg 67%
    11:00 +12°C° 0 mm 2 mps 757 mmHg 63%
    12:00 +13°C° 0 mm 1 mps 756 mmHg 59%
    13:00 +14°C° 0 mm 2 mps 756 mmHg 57%
    14:00 +15°C° 0 mm 2 mps 755 mmHg 55%
    15:00 +16°C° 0 mm 2 mps 755 mmHg 53%
    16:00 +15°C° 0 mm 2 mps 755 mmHg 57%
    17:00 +14°C° 0 mm 2 mps 755 mmHg 62%
    18:00 +13°C° 0 mm 2 mps 755 mmHg 66%
    19:00 +12°C° 0 mm 2 mps 755 mmHg 69%
    20:00 +12°C° 0 mm 2 mps 755 mmHg 71%
    21:00 +10°C° 0 mm 2 mps 756 mmHg 74%
    22:00 +10°C° 0 mm 2 mps 755 mmHg 75%
    23:00 +9°C° 0 mm 2 mps 755 mmHg 77%
    Show more